Volver al catálogo

NAVSTAR 85

USA 581

ActivoNavegaciónHEO
NORAD 67588·PAYLOAD·🇺🇸 United States

Lanzado Jan 28, 2026 desde Cape Canaveral Space Force Station

Loading…

Próximos Pases (próximas 24 horas)

TLE

ActualizadoSource: CelesTrak SupGP

Época: Sep 14, 2026, 00:00 UTC

1 67588C 26017A   26257.00000000  .00000000  00000+0  00000+0 0  2577
2 67588  55.1509  85.1912 0020808 263.2658 138.7099  2.00568984    17

Sigue NAVSTAR 85 en tiempo real con AllMySat

Download on the App Store